FW9483 Weather Reports


time (UTC)temp
C
wind
direction
speed
KPH
gust
KPH
rain 1hr
cm
rain 24hr
cm
rain mn
cm
humidity
%
barometer
mb
20260510230516 13 281 1.6 4.8 0.00 0.00 0.00 61 1014.9
20260510225516 13 321 1.6 4.8 0.00 0.00 0.00 60 1014.8
20260510224516 14 273 1.6 6.4 0.00 0.00 0.00 56 1014.8
20260510223516 15 210 3.2 8.0 0.00 0.00 0.00 57 1014.7
20260510222516 15 275 4.8 12.9 0.00 0.00 0.00 55 1014.5
20260510221516 15 237 4.8 12.9 0.00 0.00 0.00 60 1014.5
20260510220516 14 222 1.6 11.3 0.00 0.00 0.00 63 1014.5
20260510215556 13 199 1.6 11.3 0.00 0.00 0.00 65 1014.6
20260510214516 14 209 3.2 11.3 0.00 0.00 0.00 65 1014.6
20260510213536 14 227 3.2 12.9 0.00 0.00 0.00 66 1014.5
20260510212516 14 229 6.4 17.7 0.00 0.00 0.00 66 1014.4
20260510211516 15 213 6.4 20.9 0.00 0.00 0.00 66 1014.3
20260510210516 14 243 4.8 19.3 0.00 0.00 0.00 67 1014.1
20260510205516 14 245 4.8 12.9 0.00 0.00 0.00 67 1013.9
20260510204516 14 210 6.4 12.9 0.00 0.00 0.00 67 1013.9
20260510203516 15 257 3.2 12.9 0.00 0.00 0.00 67 1013.8
20260510202516 15 220 6.4 12.9 0.00 0.03 0.00 66 1013.7
20260510201516 15 226 4.8 11.3 0.00 0.03 0.00 67 1013.7
20260510200516 15 195 8.0 14.5 0.00 0.03 0.00 69 1013.7
20260510195516 14 268 3.2 6.4 0.00 0.05 0.00 72 1013.8
20260510194516 13 346 3.2 9.7 0.00 0.08 0.00 74 1014.0
20260510193516 13 220 1.6 6.4 0.00 0.10 0.00 76 1014.1
20260510192536 13 197 4.8 12.9 0.00 0.13 0.00 76 1014.1
20260510191516 13 231 6.4 12.9 0.00 0.13 0.00 77 1014.1
20260510190537 13 244 4.8 12.9 0.00 0.15 0.00 78 1014.2
20260510185516 12 198 3.2 8.0 0.00 0.18 0.00 77 1014.2
20260510184516 13 204 6.4 16.1 0.00 0.18 0.00 75 1014.3
20260510183517 13 196 8.0 24.1 0.00 0.20 0.00 72 1014.1
20260510182516 15 232 4.8 16.1 0.00 0.23 0.00 70 1013.9
20260510181536 15 356 4.8 8.0 0.00 0.25 0.00 70 1013.8
20260510180516 15 196 3.2 16.1 0.00 0.30 0.00 70 1013.6
20260510175516 15 70 4.8 17.7 0.00 0.33 0.00 67 1013.6
20260510174536 16 270 3.2 14.5 0.00 0.38 0.00 67 1013.6
20260510173536 16 219 9.7 17.7 0.00 0.41 0.00 66 1013.6
20260510172516 16 204 6.4 14.5 0.00 0.43 0.00 66 1013.7
20260510171516 15 239 6.4 16.1 0.00 0.48 0.00 70 1013.7
20260510170516 15 215 6.4 16.1 0.00 0.51 0.00 70 1013.7
20260510165516 15 227 6.4 11.3 0.00 0.56 0.00 72 1013.5
20260510164516 15 2 4.8 16.1 0.00 0.58 0.00 72 1013.7
20260510163516 15 262 3.2 9.7 0.00 0.61 0.00 70 1013.6
20260510162516 15 208 8.0 17.7 0.00 0.64 0.00 72 1013.6
20260510161536 13 186 8.0 16.1 0.00 0.66 0.00 75 1013.8
20260510160516 13 239 8.0 19.3 0.00 0.71 0.00 74 1013.9
20260510155516 13 251 4.8 14.5 0.00 0.74 0.00 75 1013.8
20260510154516 13 240 9.7 20.9 0.00 0.74 0.00 76 1013.7
20260510153516 13 222 3.2 12.9 0.00 0.76 0.00 79 1013.6
20260510152516 13 200 6.4 11.3 0.00 0.79 0.00 78 1013.6
20260510151516 13 207 6.4 16.1 0.00 0.81 0.00 77 1013.5
20260510150516 13 205 3.2 11.3 0.00 0.86 0.00 79 1013.5
20260510145556 13 230 6.4 14.5 0.00 0.89 0.00 79 1013.4
20260510144516 12 243 1.6 12.9 0.00 0.89 0.00 82 1013.3
20260510143516 12 243 6.4 12.9 0.00 0.91 0.00 82 1013.3
20260510142537 12 274 6.4 16.1 0.00 0.91 0.00 82 1013.1
20260510141516 11 248 3.2 9.7 0.00 0.94 0.00 84 1013.1
20260510140516 11 188 3.2 11.3 0.00 0.97 0.00 85 1013.0
20260510135516 11 221 3.2 11.3 0.00 0.99 0.00 86 1012.9
20260510134516 11 236 3.2 12.9 0.00 1.02 0.00 85 1012.9
20260510133516 11 219 4.8 14.5 0.00 1.04 0.00 85 1012.9
20260510132516 11 211 4.8 14.5 0.00 1.07 0.00 86 1012.9
20260510131516 11 258 1.6 8.0 0.00 1.09 0.00 87 1012.9
20260510130516 11 306 1.6 4.8 0.00 1.09 0.00 87 1012.9
20260510125516 11 202 3.2 6.4 0.00 1.12 0.00 87 1012.9
20260510124516 11 243 4.8 11.3 0.00 1.12 0.00 86 1012.8
20260510123516 11 212 3.2 9.7 0.00 1.12 0.00 88 1012.7
20260510122536 10 238 3.2 6.4 0.00 1.12 0.00 88 1012.7
20260510121516 10 208 1.6 6.4 0.00 1.12 0.00 89 1012.6
20260510120516 10 242 3.2 4.8 0.00 1.12 0.00 90 1012.4
20260510115516 9 219 1.6 4.8 0.00 1.12 0.00 91 1012.2
20260510114536 9 196 1.6 3.2 0.00 1.12 0.00 92 1012.1
20260510113517 8 247 1.6 4.8 0.00 1.12 0.00 94 1012.0
20260510112536 8 219 0.0 1.6 0.00 1.12 0.00 95 1011.9
20260510111536 8 0.0 3.2 0.00 1.12 0.00 95 1012.0
20260510110516 7 265 0.0 1.6 0.00 1.12 0.00 95 1011.9
20260510105516 7 227 1.6 6.4 0.00 1.14 0.00 94 1011.7
20260510104516 7 282 0.0 3.2 0.00 1.14 0.00 94 1011.7
20260510103516 7 257 0.0 3.2 0.00 1.17 0.00 94 1011.6
20260510102536 7 0.0 0.0 0.00 1.19 0.00 94 1011.7
20260510101516 7 257 0.0 1.6 0.00 1.22 0.00 94 1011.6
20260510100516 7 264 0.0 3.2 0.00 1.24 0.00 94 1011.5
20260510095516 7 316 0.0 3.2 0.00 1.27 0.00 94 1011.3
20260510094516 7 355 0.0 3.2 0.00 1.30 0.00 94 1011.0
20260510093517 7 328 0.0 3.2 0.00 1.32 0.00 94 1010.9
20260510092556 7 327 0.0 3.2 0.00 1.37 0.00 95 1010.8
20260510091536 7 337 0.0 3.2 0.00 1.40 0.00 94 1010.5
20260510090536 7 338 0.0 3.2 0.00 1.42 0.00 94 1010.5
20260510085516 7 338 0.0 1.6 0.00 1.47 0.00 93 1010.6
20260510084516 7 338 0.0 3.2 0.00 1.52 0.00 93 1010.5
20260510083516 7 334 0.0 3.2 0.00 1.57 0.00 93 1010.4
20260510082536 7 306 1.6 3.2 0.00 1.68 0.00 93 1010.2
20260510081516 8 290 0.0 1.6 0.00 1.70 0.00 93 1010.1
20260510080516 8 0.0 0.0 0.00 1.78 0.00 94 1010.1
20260510075516 8 290 0.0 3.2 0.00 1.83 0.00 94 1010.2
20260510074516 8 355 1.6 6.4 0.00 1.88 0.00 95 1010.1
20260510073516 8 202 1.6 4.8 0.00 1.96 0.00 94 1010.4
20260510072516 8 202 0.0 3.2 0.00 2.03 0.00 94 1010.8
20260510071536 8 202 0.0 1.6 0.00 2.13 0.00 94 1010.9
20260510070516 8 0.0 0.0 0.00 2.21 0.00 94 1011.0
20260510065516 8 202 1.6 3.2 0.00 2.26 0.00 94 1011.1
20260510064516 8 202 0.0 1.6 0.00 2.31 0.00 94 1011.3
20260510063516 8 202 0.0 1.6 0.00 2.39 0.00 94 1011.4
20260510062516 8 202 0.0 1.6 0.00 2.39 0.00 94 1011.4
20260510061516 8 219 1.6 4.8 0.00 2.39 0.00 95 1011.6
20260510060516 8 229 1.6 11.3 0.00 2.39 0.00 95 1011.6
20260510055516 8 245 1.6 4.8 0.00 2.39 0.00 94 1011.6
20260510054516 7 347 1.6 4.8 0.00 2.39 0.00 94 1011.4
20260510053536 7 308 1.6 3.2 0.00 2.39 0.00 94 1011.2
20260510052516 8 224 1.6 3.2 0.00 2.39 0.00 93 1010.9
20260510051516 8 224 0.0 1.6 0.00 2.39 0.00 93 1011.0
20260510050516 8 203 0.0 3.2 0.00 2.39 0.00 93 1011.0
20260510045516 8 193 0.0 3.2 0.00 2.39 0.00 93 1011.0
20260510044536 8 179 1.6 8.0 0.00 2.39 0.00 93 1011.0
20260510043516 8 179 1.6 8.0 0.00 2.39 0.00 92 1011.1
20260510042516 8 226 3.2 14.5 0.00 2.39 0.00 92 1010.9
20260510041516 8 239 4.8 9.7 0.00 2.39 0.00 92 1010.6
20260510040536 8 231 4.8 12.9 0.00 2.39 0.00 92 1010.6
20260510035516 8 219 3.2 6.4 0.00 2.39 2.39 93 1010.6
20260510034516 8 239 3.2 8.0 0.00 2.39 2.39 93 1010.5
20260510033516 8 212 4.8 16.1 0.00 2.39 2.39 93 1010.5
20260510032516 8 185 4.8 11.3 0.00 2.39 2.39 94 1010.5
20260510031516 8 228 3.2 8.0 0.00 2.39 2.39 94 1010.6
20260510030516 8 211 4.8 9.7 0.00 2.39 2.39 93 1010.6
20260510025516 8 232 4.8 14.5 0.00 2.39 2.39 93 1010.6
20260510024516 8 216 1.6 6.4 0.00 2.39 2.39 93 1010.4
20260510023516 8 217 1.6 3.2 0.00 2.39 2.39 92 1010.3
20260510022536 8 217 0.0 8.0 0.00 2.39 2.39 92 1010.3
20260510021516 8 224 1.6 8.0 0.00 2.39 2.39 92 1010.2
20260510020536 9 253 1.6 9.7 0.00 2.39 2.39 91 1010.3
20260510015536 9 227 1.6 8.0 0.00 2.39 2.39 92 1010.2
20260510014516 8 223 1.6 8.0 0.00 2.39 2.39 92 1010.0
20260510013516 9 223 1.6 4.8 0.00 2.39 2.39 91 1010.2
20260510012516 9 155 1.6 6.4 0.00 2.39 2.39 91 1010.1
20260510011516 9 219 1.6 11.3 0.00 2.39 2.39 91 1010.1
20260510010516 9 176 3.2 8.0 0.00 2.39 2.39 92 1010.1
20260510005515 9 198 3.2 9.7 0.00 2.39 2.39 91 1010.1
20260510004514 9 179 1.6 9.7 0.00 2.39 2.39 91 1010.0
20260510003515 9 199 3.2 8.0 0.00 2.39 2.39 91 1009.9
20260510002514 9 166 3.2 9.7 0.00 2.39 2.39 91 1009.6
20260510001514 9 204 4.8 11.3 0.00 2.39 2.39 91 1009.5
20260510000554 9 246 0.0 8.0 0.00 2.39 2.39 90 1009.5
20260509235515 9 185 1.6 11.3 0.00 2.39 2.39 90 1009.4
20260509234514 9 226 1.6 6.4 0.00 2.39 2.39 90 1009.3
20260509233534 9 185 3.2 8.0 0.00 2.39 2.39 90 1009.3
20260509232514 9 203 3.2 8.0 0.00 2.39 2.39 90 1009.1
20260509231555 9 204 3.2 9.7 0.00 2.39 2.39 90 1009.0